Tracking 29033 objects as of 22-Jun-2024
HD Live streaming from Space Station
objects crossing your sky now

PALAPA B1

Track PALAPA B1 now!
PALAPA B1 is classified as:


NORAD ID: 14134
Int'l Code: 1983-059C
Perigee: 35,807.1 km
Apogee: 35,853.2 km
Inclination: 12.5 °
Period: 1,438.0 minutes
Semi major axis: 42201 km
RCS: 1.2604 m2 (large)
Launch date: June 18, 1983
Source: Indonesia (INDO)
Launch site: AIR FORCE EASTERN TEST RANGE (AFETR)
Your satellite tracking list
Your tracking list is empty




NASA's NSSDC Master Catalog

Two Line Element Set (TLE):
1 14134U 83059C   24173.49803087 -.00000026  00000-0  00000-0 0  9993
2 14134  12.5095 334.5454 0005459 122.8496 238.8884  1.00141932113524
Source of the keplerian elements: AFSPC